Dewpoint
49 53 56 58 59 60 60 61 61 61 59 56 53 49 49 49 47 44 44 44 43 42 43 40 40 41 39 42 42 39 38 35 38 35 29 28 30 36 36 36 35 36 37
50 53 56 58 59 59 60 59 59 58 56 53 49 50 51 48 43 43 44 41 41 39 38 42 40 40 38 40 42 40 36 32 35 36 33 26 25 26 32 34 33 36 34
50 53 55 56 56 56 56 54 52 51 50 51 49 49 48 45 43 41 40 41 41 39 40 42 41 41 39 36 40 40 39 35 34 35 33 29 25 26 27 30 27 33 30
49 48 48 50 49 49 50 49 48 47 46 44 45 47 43 42 42 42 41 40 43 43 41 40 42 41 39 39 39 36 38 35 30 31 28 31 30 26 24 25 27 24 23
44 42 42 42 43 46 46 45 44 43 45 45 46 44 43 41 40 41 41 42 42 42 40 40 40 40 39 40 40 38 35 34 33 29 29 29 26 25 21 19 20 20 19
40 38 39 40 41 44 46 45 43 42 43 43 44 44 42 40 39 39 36 33 31 29 30 30 39 41 40 41 38 37 36 34 31 27 25 23 22 20 19 18 19 18 18
39 40 39 39 41 44 44 42 40 40 41 42 40 40 38 34 30 27 25 26 23 24 27 32 35 38 40 38 38 36 37 32 28 27 24 23 23 22 21 21 19 18 18
41 40 40 40 41 42 41 41 39 38 36 34 31 30 27 24 23 26 27 25 26 26 32 35 37 39 39 38 38 37 34 32 29 29 27 25 23 22 22 21 21 21 19
41 40 40 40 40 40 42 39 33 29 29 30 29 29 29 29 29 30 30 27 29 26 33 39 39 39 39 38 37 33 31 30 28 28 27 24 23 23 22 22 22 24 24
41 41 40 40 39 39 36 35 30 28 28 27 28 27 28 29 31 31 30 29 30 31 33 36 38 39 39 37 33 30 27 26 26 23 25 25 22 22 23 20 22 22 22
41 41 39 39 39 35 33 30 29 28 27 26 28 30 30 30 30 30 30 29 32 30 31 34 36 37 36 32 32 33 25 24 25 26 25 26 25 23 23 22 21 20 18
41 39 37 38 36 33 29 29 29 27 25 26 27 28 29 29 29 30 29 31 31 32 31 32 33 35 33 32 33 30 23 24 24 25 26 25 20 25 24 21 21 19 19
40 37 35 34 32 30 28 28 29 27 24 22 23 26 27 28 29 30 31 30 31 32 33 32 32 32 32 32 28 25 24 25 26 26 26 25 25 24 22 21 20 19 19
37 35 33 31 29 27 28 29 32 30 24 21 22 24 28 28 30 31 31 31 31 32 32 32 33 34 31 28 24 24 26 26 26 27 26 25 23 22 21 19 20 18 21
36 35 33 31 28 27 30 33 31 29 27 24 22 25 28 29 30 31 30 31 33 32 32 31 29 28 26 22 27 26 27 27 25 24 20 19 20 20 20 18 19 18 18
35 35 34 32 28 27 31 29 29 27 26 25 25 26 28 28 30 29 31 30 30 30 30 31 31 31 24 31 29 25 22 21 20 18 17 17 18 18 20 20 20 20 19
35 35 35 33 29 27 29 29 26 26 25 24 24 25 27 28 28 27 28 27 29 31 30 31 32 31 31 27 24 23 21 20 18 17 16 14 12 18 17 18 20 22 23
36 36 35 33 30 27 27 28 23 22 22 22 24 24 24 25 26 27 27 29 29 29 28 28 30 29 25 22 21 21 22 19 17 17 17 17 17 17 18 18 18 15 14
38 38 35 33 29 27 26 22 21 21 23 22 19 21 25 25 25 26 29 29 28 28 27 27 27 26 24 20 19 20 23 21 20 18 16 16 16 18 20 18 16 13 13
38 36 32 30 26 22 21 21 22 22 18 20 23 24 23 24 25 27 29 29 29 26 24 25 26 21 24 19 18 20 24 25 22 19 15 13 17 19 18 20 18 18 15
37 33 26 23 22 22 23 23 21 17 20 24 24 23 24 26 27 27 28 28 27 26 28 26 26 24 24 23 18 18 25 24 21 20 17 16 18 18 18 17 19 19 17
29 25 22 23 25 26 23 16 15 20 24 24 25 25 27 27 26 29 29 28 27 26 28 32 30 27 26 20 20 19 20 20 24 22 20 21 17 18 17 15 16 17 19
22 20 23 26 26 20 18 16 19 25 26 26 27 27 29 28 27 28 28 27 25 26 27 26 27 26 28 26 20 19 20 21 23 23 21 18 16 16 14 12 15 16 18
19 21 25 24 19 21 21 22 24 26 27 27 27 28 27 28 29 28 27 26 27 27 25 25 25 25 24 26 26 25 25 24 23 22 22 20 18 18 17 15 15 16 16
29 29 27 19 18 22 23 25 26 26 26 27 27 27 28 27 27 27 29 29 27 26 27 26 26 31 30 27 26 25 25 26 23 22 24 22 20 17 16 16 15 16 13
29 25 23 23 23 24 26 27 27 27 29 29 28 28 29 28 27 27 28 30 27 27 27 27 29 33 29 24 23 22 22 22 20 21 22 24 23 21 17 17 17 17 14
Lifted_Index
-1 -2 -3 -3 -3 -4 -4 -3 -3 -3 -2 -1 1 2 2 2 3 4 5 5 6 6 6 7 7 7 7 7 8 8 8 9 9 9 9 10 10 9 9 9 9 10 10
-2 -2 -3 -3 -3 -3 -3 -3 -2 -2 -1 0 1 2 2 3 4 5 5 6 6 6 6 6 7 7 7 8 8 8 9 9 9 9 10 10 10 10 9 9 10 10 11
-2 -2 -2 -2 -2 -2 -1 -1 0 1 2 2 3 3 3 4 5 5 5 6 6 6 7 7 7 7 8 8 8 9 9 10 10 10 11 11 11 11 11 10 11 11 11
-1 -1 -1 -0 0 1 2 2 3 4 4 4 4 4 4 4 5 5 6 6 6 7 7 7 8 8 9 9 9 10 11 11 11 11 11 12 12 12 12 11 11 11 12
1 1 2 3 3 4 4 5 5 5 5 5 5 5 5 5 6 6 7 7 8 8 8 9 9 9 9 10 10 11 11 12 12 12 12 12 12 12 12 12 11 11 10
2 3 4 4 5 5 5 6 5 5 5 6 6 6 7 8 8 9 9 10 10 11 11 11 10 10 10 10 11 11 12 12 12 13 13 13 12 12 11 10 9 9 8
4 4 4 5 5 5 6 6 6 6 6 7 8 9 10 11 11 12 12 12 12 12 12 12 11 10 10 11 11 12 12 12 13 13 13 12 11 10 9 8 7 7 7
4 4 4 4 5 5 5 6 6 7 8 9 9 10 12 13 13 13 13 13 13 13 13 12 11 11 11 11 11 11 12 12 12 12 11 10 8 7 7 6 6 6 6
4 4 4 4 4 5 6 6 7 7 9 9 10 11 12 13 13 13 13 13 13 13 13 11 11 10 11 11 11 11 11 11 11 10 8 7 6 6 6 6 6 6 6
3 4 4 4 4 5 6 7 7 8 8 10 11 12 12 13 13 13 13 13 13 13 13 11 11 10 11 11 11 11 11 10 9 7 6 6 5 5 5 5 6 6 6
3 3 3 4 5 6 6 7 8 8 9 10 12 12 12 12 12 12 13 13 13 13 13 12 11 11 11 11 11 10 9 8 7 6 5 5 5 5 5 5 6 6 7
3 3 3 4 5 6 7 7 8 8 10 11 12 12 12 12 12 12 13 13 13 13 12 12 11 11 11 11 10 9 8 7 6 5 5 5 5 6 6 6 6 7 7
3 3 3 3 4 6 7 7 7 8 10 12 12 12 12 12 12 12 12 13 13 12 12 12 11 11 11 10 9 8 7 6 5 5 5 5 6 6 7 7 7 8 8
2 2 3 3 4 6 7 7 8 9 11 12 12 12 12 12 12 12 12 12 12 12 12 12 11 11 10 9 8 7 6 5 5 5 6 7 7 8 8 8 9 9 9
2 2 3 3 4 5 6 7 9 10 11 11 12 12 12 12 12 12 12 12 12 12 11 11 11 10 9 8 7 6 6 5 6 6 7 8 9 9 10 10 10 10 10
2 2 3 3 4 5 6 8 10 11 11 11 12 12 12 12 11 11 11 12 12 11 11 11 10 9 8 7 7 6 6 6 7 7 8 9 10 10 10 11 11 11 11
3 3 3 3 5 6 8 9 10 11 11 11 11 12 12 12 12 11 11 11 11 11 11 10 9 8 7 7 6 6 6 7 7 8 9 9 10 11 11 11 11 11 11
3 3 3 4 5 7 9 10 10 11 11 11 12 12 12 12 12 11 11 11 11 11 10 9 8 7 7 6 6 6 6 7 8 9 10 10 11 11 12 12 11 11 10
3 3 3 4 6 8 9 10 10 11 11 11 12 13 12 12 12 11 11 11 11 11 10 9 8 7 6 6 6 6 7 8 9 9 10 11 11 12 12 12 12 11 11
2 2 3 5 6 8 9 9 10 10 11 12 13 13 13 12 12 11 11 11 11 10 10 9 8 7 6 6 6 7 7 8 9 10 11 12 12 12 13 13 12 12 12
2 2 3 5 7 8 9 9 10 11 12 13 13 13 12 12 11 11 11 11 11 10 9 9 7 6 6 6 6 7 8 9 9 10 11 12 12 13 13 13 13 13 13
2 3 4 6 7 8 9 10 11 12 13 14 13 13 12 12 12 11 11 10 10 9 9 8 7 6 6 6 7 8 9 9 10 10 11 12 12 12 12 12 13 13 13
3 4 5 7 8 9 10 11 13 13 14 14 13 13 12 12 12 11 10 10 9 8 8 7 6 6 6 6 7 8 9 10 10 11 11 12 12 12 12 12 12 13 13
5 6 7 8 9 11 12 13 14 14 14 13 13 13 12 12 11 11 10 9 8 8 7 6 6 6 6 6 7 8 9 10 10 11 11 11 11 11 11 12 12 12 13
7 8 9 10 11 12 14 14 14 14 13 13 13 12 12 11 11 10 9 8 8 7 6 6 6 6 6 6 7 8 9 9 10 10 11 11 11 10 10 11 11 12 12
8 9 10 11 13 14 14 15 14 13 13 12 12 12 11 11 10 9 8 8 7 7 6 6 6 6 6 7 7 8 9 9 10 10 10 10 10 10 10 10 11 11 12